Погода в Плиевом

Россия / Республика Ингушетия     43°17′07″N   44°50′09″E
темп.,
°C
ветер,
м/с
пор.,
м/с
влажн.,
%
обл.,
%
осадки,
мм/ч
давл.,
гПа
погр.,
м
11 мая, вт
вт1100:00+4ю118718 0.0 102135
03:00+2всв23913 0.0 101933
06:00+3вюв13833 0.0 1019120
09:00+10в55604 0.0 1016847
12:00+13всв44542 0.0 10141100
15:00+15всв33502 0.0 10131310
18:00+12всв610692 0.0 1014488
21:00+6в35840 0.0 101669
12 мая, ср
ср1200:00+5всв11880 0.0 101611
03:00+5зюз22900 0.0 101613
06:00+7юз11840 0.0 101765
09:00+12с22640 0.0 1016688
12:00+16ссв32573 0.0 10151072
15:00+17св32582 0.0 10151100
18:00+16св34720 0.0 1015181
21:00+12в22790 0.0 101512
13 мая, чт
чт1300:00+10вюв11840 0.0 101410
03:00+9вюв118428 0.0 101310
06:00+12юв11780 0.0 101438
09:00+18всв23620 0.0 1013399
12:00+22всв44560 0.0 1013707
15:00+22всв455599 0.0 1013843
18:00+20всв35730 0.0 1013150
21:00+15в228640 0.0 101412
14 мая, пт
пт1400:00+14юв1184100 0.0 101311
03:00+14ю118019 0.0 101311
06:00+15ю11734 0.0 101317
09:00+22св11545 0.0 1012334
12:00+25св44534 0.0 1012681
15:00+26всв34505 0.0 1011823
18:00+23св237032 0.0 101258
21:00+18ююв11795 0.0 101211
15 мая, сб
сб1500:00+17ю22695 0.0 101214
03:00+16ю22581 0.0 101211
06:00+17ю22665 0.0 101220
09:00+24зсз114921 0.0 1012345
12:00+27ссв22485 0.0 10121172
15:00+27св225211 0.0 10121527
18:00+23с2274100 1.3 101238
21:00+20юз117996 2.0 101311